^^
Meteo Knjazevac Station Historical Data
Daily Summary for June 12, 2021 Units:  English    Metric   Both
Daily Weekly Monthly Yearly Custom
  High: Low: Average:
Temperature: 47.5 °F 46 °F 46.7 °F
Dew Point: 47.2 °F 45.8 °F 46.5 °F
Humidity: 99% 99% 99%
Wind Speed: 5mph 0mph 1.3mph
Wind Gust: 9mph - -
Wind- - NNW
Pressure: 30.08 in 30.04 in -
Precipitation: 0.05 in    
Historical Graphs
 
 
Tabular Data for June 12, 2021
Time Temperature Dew Point Pressure Wind Wind Speed Wind Gust Humidity Rainfall Rate (Hourly) solar Conditions
00:00 46 °F 45.8 °F 30.08 in North 1 mph 3 mph 99% 0.00 in 0 W/m2
00:10 46 °F 45.8 °F 30.07 in Calm   3 mph 99% 0.00 in 0 W/m2
00:20 46.2 °F 45.9 °F 30.07 in Calm   2 mph 99% 0.00 in 0 W/m2
00:30 46.2 °F 46 °F 30.07 in Calm   1 mph 99% 0.00 in 0 W/m2
00:40 46.2 °F 46 °F 30.07 in Calm   1 mph 99% 0.00 in 0 W/m2
00:50 46.2 °F 46 °F 30.07 in Calm   1 mph 99% 0.00 in 0 W/m2
01:00 46.2 °F 46 °F 30.06 in NW 1 mph 2 mph 99% 0.00 in 0 W/m2
01:10 46.2 °F 46 °F 30.07 in Calm   2 mph 99% 0.00 in 0 W/m2
01:20 46.2 °F 46 °F 30.06 in Calm   1 mph 99% 0.01 in 0 W/m2
01:30 46.4 °F 46.1 °F 30.06 in Calm   2 mph 99% 0.00 in 0 W/m2
01:40 46.4 °F 46.1 °F 30.06 in Calm   5 mph 99% 0.00 in 0 W/m2
01:50 46.6 °F 46.3 °F 30.06 in NNW 2 mph 7 mph 99% 0.00 in 0 W/m2
02:00 46.8 °F 46.5 °F 30.06 in North 2 mph 7 mph 99% 0.01 in 0 W/m2
02:10 46.9 °F 46.7 °F 30.06 in North 1 mph 6 mph 99% 0.00 in 0 W/m2
02:20 46.9 °F 46.7 °F 30.05 in North 3 mph 8 mph 99% 0.02 in 0 W/m2
02:30 47.1 °F 46.9 °F 30.05 in Calm   7 mph 99% 0.00 in 0 W/m2
02:40 47.1 °F 46.9 °F 30.05 in North 2 mph 9 mph 99% 0.00 in 0 W/m2
02:50 47.1 °F 46.9 °F 30.05 in North 2 mph 6 mph 99% 0.00 in 0 W/m2
03:00 47.3 °F 47 °F 30.04 in North 5 mph 6 mph 99% 0.00 in 0 W/m2
03:10 47.3 °F 47 °F 30.05 in North 3 mph 8 mph 99% 0.00 in 0 W/m2
03:20 47.3 °F 47 °F 30.04 in North 2 mph 8 mph 99% 0.00 in 0 W/m2
03:30 47.3 °F 47 °F 30.04 in North 3 mph 8 mph 99% 0.00 in 0 W/m2
03:40 47.3 °F 47 °F 30.04 in NNW 1 mph 7 mph 99% 0.00 in 0 W/m2
03:50 47.5 °F 47.2 °F 30.04 in North 3 mph 7 mph 99% 0.00 in 0 W/m2
Knjazevac, Serbia
Compliments of Weather Underground - 2 mb